SCOUT G-1 DEB

Satellite information

Favourite Embed

Satellite Type and Status

DEBRISIN ORBIT

Key statistics

Satellite SCOUT G-1 DEB at a glance.

Uptime

11700

Days in orbit

Revolutions

≈ 14.3

Per day

Orbit

SSO

Sun Synchronous Orbit

Inclination

90.2

Latest

Satellite identification and parameters

Extended collection of information and parameters for SCOUT G-1 DEB.

Object identification

Identified? True

Debris? True

Object name: SCOUT G-1 DEB

International designator: 1993-041D

Object number (NORAD): 22707

Object ID (CCSDS): 22707

Country: UNITED STATES OF AMERICA (US)

Current information (Y/N): Y

RCS size: SMALL

Orbital parameters

Period: 100.909 minutes

Inclination: 90.1507 deg

SMA: 7179.807 km

Apoapsis: 901.175 km

Periapsis: 702.17 km

RAAN: 294.3509 deg

Eccentricy: 0.0138587

Argument of periapsis: 357.0733 deg

Mean anomaly: 2.9634 deg

Mean motion: 14.27031559 rev/day

Mean motion (dot): 0.00000389 rev/day2

B* drag term: 0.00014053 1/REarth

Two-line elements (TLE)

Creation date: July 5, 2025, 5:45 p.m.

Reference frame: TEME

Reference center: EARTH

Epoch: July 5, 2025, 6:23 a.m. UTC

TLE line 0: 0 SCOUT G-1 DEB

TLE line 1: 1 22707U 93041D 25186.26605972 .00000389 00000-0 14053-3 0 9990

TLE line 2: 2 22707 90.1507 294.3509 0138587 357.0733 2.9634 14.27031559660052

Live tracking on map

Real-time ground track for satellite SCOUT G-1 DEB.

In-orbit conjunctions

A list of the most updated potential collisions computed for object SCOUT G-1 DEB.

Target Orbit TCA Probability of collision Miss distance Type
NOAA 16 DEB SSO 2025-02-05 12:24:41 0.0001258923 83.0 (m) DEBRIS
FENGYUN 1C DEB SSO 2024-11-10 15:37:04 0.001106343 689.0 (m) DEBRIS

Associated space launch

RadCal (Radar Calibration) is small satellite to calibrate the Space Command radars to determine orbital positions of other satellites to within a few meters.

SCOUT G-1 DEB was lifted into orbit during the mission ‘Scout G-1 | RADCAL’, on board a Scout G-1 space rocket.

The launch took place on June 25, 1993, 11:30 p.m. from Space Launch Complex 5.

For more information about the launch, click the button.

Launch to space Scout G-1 | RADCAL
Scout G-1 | RADCAL

Agency: N/A

Status: Launch Successful

Launch date: June 25, 1993, 11:30 p.m. UTC

Rocket: Scout G-1

Launch pad: Space Launch Complex 5

Location: Vandenberg SFB, CA, USA

...

Latest news about this satellite

There are no fresh news available about this satellite. Check back as we update our databases every day.


Newsletter sign-up

Weekly statistics, charts and insights to help you stay on top of the space industry.